EW7186 Weather Reports


Display with metric or nautical units.
time (UTC)temp
F
wind
direction
speed
MPH
gust
MPH
rain 1hr
in
rain 24hr
in
rain mn
in
humidity
%
barometer
mb
20260505124554 66 0 0.0 4.0 0.00 0.00 0.00 74 1016.8
20260505123050 64 0 0.0 4.0 0.00 0.00 0.00 76 1016.8
20260505121554 63 0 0.0 4.0 0.00 0.00 0.00 77 1016.6
20260505120108 62 0 0.0 3.0 0.00 0.00 0.00 78 1016.5
20260505114552 61 0 0.0 0.0 0.00 0.00 0.00 79 1016.4
20260505113050 59 0 0.0 1.0 0.00 0.00 0.00 81 1016.5
20260505111553 58 0 0.0 0.0 0.00 0.00 0.00 83 1016.4
20260505101555 56 0 0.0 0.0 0.00 0.00 0.00 84 1015.9
20260505100053 57 0 0.0 0.0 0.00 0.00 0.00 83 1015.8
20260505094551 57 0 0.0 0.0 0.00 0.00 0.00 82 1015.7
20260505093055 57 0 0.0 0.0 0.00 0.00 0.00 82 1015.7
20260505091553 57 0 0.0 0.0 0.00 0.00 0.00 81 1015.6
20260505090053 57 0 0.0 0.0 0.00 0.00 0.00 80 1015.6
20260505084550 58 0 0.0 0.0 0.00 0.00 0.00 80 1015.6
20260505083050 58 0 0.0 0.0 0.00 0.00 0.00 79 1015.5
20260505081551 58 0 0.0 2.0 0.00 0.00 0.00 78 1015.6
20260505080053 59 0 1.0 3.0 0.00 0.00 0.00 77 1015.4
20260505074558 59 0 0.0 3.0 0.00 0.00 0.00 77 1015.3
20260505073103 59 0 0.0 3.0 0.00 0.00 0.00 76 1015.2
20260505071558 59 0 0.0 3.0 0.00 0.00 0.00 75 1015.3
20260505070049 60 259 0.0 2.0 0.00 0.00 0.00 74 1015.2
20260505064552 60 0 0.0 4.0 0.00 0.00 0.00 74 1015.3
20260505063052 60 0 0.0 3.0 0.00 0.00 0.00 73 1015.4
20260505061555 60 0 0.0 2.0 0.00 0.00 0.00 72 1015.4
20260505060056 61 0 0.0 3.0 0.00 0.00 0.00 71 1015.6
20260505054624 61 0 0.0 3.0 0.00 0.00 0.00 70 1015.6
20260505053102 62 0 0.0 2.0 0.00 0.00 0.00 68 1015.8
20260505051549 62 213 2.0 7.0 0.00 0.00 0.00 67 1015.8
20260505041559 63 211 0.0 2.0 0.00 0.00 0.00 64 1015.9
20260505040050 64 205 0.0 2.0 0.00 0.00 0.00 63 1015.9
20260505034547 64 0 0.0 3.0 0.00 0.00 0.00 63 1015.9
20260505033051 65 0 0.0 3.0 0.00 0.00 0.00 62 1016.0
20260505031606 65 0 0.0 4.0 0.00 0.00 0.00 62 1016.0
20260505030050 65 0 0.0 3.0 0.00 0.00 0.00 61 1015.9
20260505024551 65 0 0.0 3.0 0.00 0.00 0.00 61 1016.0
20260505023106 64 0 0.0 0.0 0.00 0.00 0.00 61 1015.9
20260505021552 64 0 0.0 2.0 0.00 0.00 0.00 62 1015.8
20260505020054 65 0 0.0 0.0 0.00 0.00 0.00 58 1015.5
20260505014604 66 0 0.0 0.0 0.00 0.00 0.00 55 1015.4
20260505013105 67 0 0.0 0.0 0.00 0.00 0.00 51 1015.2
20260505011552 67 0 0.0 0.0 0.00 0.00 0.00 49 1015.0
20260505010053 68 0 0.0 0.0 0.00 0.00 0.00 48 1014.9
20260505004558 69 0 0.0 0.0 0.00 0.00 0.00 47 1014.7
20260505003054 70 0 0.0 0.0 0.00 0.00 0.00 45 1014.6
20260505001555 71 0 0.0 0.0 0.00 0.00 0.00 44 1014.5
20260505000107 72 0 0.0 0.0 0.00 0.00 0.00 42 1014.2
20260504234552 73 0 0.0 2.0 0.00 0.00 0.00 40 1014.1
20260504233054 74 0 0.0 4.0 0.00 0.00 0.00 39 1014.0
20260504231554 75 0 0.0 0.0 0.00 0.00 0.00 37 1013.9
20260504230104 76 0 0.0 5.0 0.00 0.00 0.00 35 1014.1
20260504224552 76 0 0.0 4.0 0.00 0.00 0.00 35 1014.2
20260504223051 77 230 0.0 3.0 0.00 0.00 0.00 34 1014.3
20260504221600 78 0 1.0 4.0 0.00 0.00 0.00 32 1014.3
20260504220055 78 220 0.0 4.0 0.00 0.00 0.00 32 1014.2
20260504214548 78 248 0.0 5.0 0.00 0.00 0.00 31 1014.2
20260504213053 78 217 1.0 4.0 0.00 0.00 0.00 29 1014.1
20260504211553 78 221 1.0 6.0 0.00 0.00 0.00 27 1014.1
20260504210054 78 0 0.0 4.0 0.00 0.00 0.00 30 1014.1
20260504204549 78 0 0.0 5.0 0.00 0.00 0.00 32 1014.0
20260504203101 78 0 0.0 4.0 0.00 0.00 0.00 29 1014.2
20260504201552 78 0 0.0 4.0 0.00 0.00 0.00 29 1014.3
20260504200054 77 0 0.0 0.0 0.00 0.00 0.00 31 1014.3
20260504194552 77 0 0.0 3.0 0.00 0.00 0.00 31 1014.6
20260504193055 77 0 0.0 6.0 0.00 0.00 0.00 29 1015.0
20260504191602 76 0 0.0 5.0 0.00 0.00 0.00 32 1015.3
20260504190112 75 0 0.0 4.0 0.00 0.00 0.00 32 1015.4
20260504184551 75 0 0.0 4.0 0.00 0.00 0.00 31 1015.6
20260504183105 74 0 0.0 2.0 0.00 0.00 0.00 31 1015.8
20260504181602 75 0 1.0 6.0 0.00 0.00 0.00 31 1016.1
20260504180059 74 0 0.0 5.0 0.00 0.00 0.00 34 1016.0
20260504174557 75 0 0.0 6.0 0.00 0.00 0.00 36 1016.2
20260504173057 74 0 1.0 5.0 0.00 0.00 0.00 32 1016.4
20260504171553 74 345 1.0 5.0 0.00 0.00 0.00 32 1016.5
20260504140106 66 231 1.0 5.0 0.00 0.00 0.00 49 1017.4